DW5508 Weather Reports


time (UTC)temp
C
wind
direction
speed
KPH
gust
KPH
rain 1hr
cm
rain 24hr
cm
rain mn
cm
humidity
%
barometer
mb
20260508213009 24 341 3.2 16.1 0.00 0.00 0.00 21 1015.9
20260508211509 23 288 6.4 17.7 0.00 0.00 0.00 21 1016.2
20260508210006 23 36 8.0 17.7 0.00 0.00 0.00 20 1016.3
20260508204514 23 338 8.0 20.9 0.00 0.00 0.00 21 1016.4
20260508203004 23 62 8.0 19.3 0.00 0.00 0.00 21 1016.5
20260508201502 23 327 6.4 17.7 0.00 0.00 0.00 22 1016.6
20260508200059 22 330 8.0 22.5 0.00 0.00 0.00 23 1016.8
20260508194558 22 28 9.7 16.1 0.00 0.00 0.00 23 1016.9
20260508193128 22 332 4.8 20.9 0.00 0.00 0.00 23 1017.0
20260508191557 22 285 6.4 19.3 0.00 0.00 0.00 24 1017.2
20260508190058 22 60 6.4 16.1 0.00 0.00 0.00 25 1017.2
20260508184615 22 332 6.4 19.3 0.00 0.00 0.00 25 1017.4
20260508183056 21 143 6.4 17.7 0.00 0.00 0.00 25 1017.3
20260508181552 21 304 4.8 16.1 0.00 0.00 0.00 27 1017.5
20260508180058 21 307 6.4 25.7 0.00 0.00 0.00 27 1017.5
20260508174606 21 343 6.4 17.7 0.00 0.00 0.00 27 1017.6
20260508173049 21 316 4.8 16.1 0.00 0.00 0.00 27 1017.5
20260508171607 21 11 4.8 17.7 0.00 0.00 0.00 30 1017.5
20260508170042 21 80 4.8 11.3 0.00 0.00 0.00 31 1017.5
20260508164541 20 13 3.2 14.5 0.00 0.00 0.00 35 1017.4
20260508163037 20 14 1.6 11.3 0.00 0.00 0.00 37 1017.4
20260508161543 20 22 1.6 8.0 0.00 0.00 0.00 35 1017.3
20260508160037 19 61 1.6 11.3 0.00 0.00 0.00 38 1017.2
20260508154535 19 46 1.6 6.4 0.00 0.00 0.00 36 1017.2
20260508153037 19 72 0.0 3.2 0.00 0.00 0.00 36 1017.1
20260508151539 19 37 0.0 1.6 0.00 0.00 0.00 37 1017.0
20260508150030 18 53 0.0 3.2 0.00 0.00 0.00 40 1017.0
20260508144527 18 63 0.0 1.6 0.00 0.00 0.00 37 1016.8
20260508143026 19 303 0.0 1.6 0.00 0.00 0.00 36 1016.8
20260508141523 18 303 0.0 0.0 0.00 0.00 0.00 39 1016.6
20260508140019 16 303 0.0 1.6 0.00 0.00 0.00 47 1016.5
20260508134514 13 303 0.0 0.0 0.00 0.00 0.00 50 1016.4
20260508133013 11 303 0.0 0.0 0.00 0.00 0.00 57 1016.3
20260508131510 10 303 0.0 1.6 0.00 0.00 0.00 62 1016.2
20260508130008 9 303 0.0 0.0 0.00 0.00 0.00 62 1016.1
20260508124507 8 303 0.0 0.0 0.00 0.00 0.00 59 1015.9
20260508123010 8 303 0.0 0.0 0.00 0.00 0.00 59 1015.7
20260508121506 8 303 0.0 0.0 0.00 0.00 0.00 60 1015.6
20260508120002 8 304 0.0 0.0 0.00 0.00 0.00 60 1015.5
20260508114608 8 337 0.0 0.0 0.00 0.00 0.00 61 1015.5
20260508113106 10 337 0.0 0.0 0.00 0.00 0.00 58 1015.4
20260508111602 10 337 0.0 0.0 0.00 0.00 0.00 58 1015.4
20260508110101 10 337 0.0 0.0 0.00 0.00 0.00 57 1015.3
20260508104558 10 337 0.0 0.0 0.00 0.00 0.00 58 1015.3
20260508103053 9 337 0.0 0.0 0.00 0.00 0.00 60 1015.1
20260508101550 10 337 0.0 0.0 0.00 0.00 0.00 60 1015.1
20260508100046 10 337 0.0 0.0 0.00 0.00 0.00 55 1015.0
20260508094545 10 337 0.0 0.0 0.00 0.00 0.00 55 1014.9
20260508093041 11 337 0.0 0.0 0.00 0.00 0.00 53 1014.8
20260508091604 11 339 0.0 0.0 0.00 0.00 0.00 49 1014.8
20260508090036 11 339 0.0 0.0 0.00 0.00 0.00 49 1014.7
20260508084536 12 339 0.0 0.0 0.00 0.00 0.00 47 1014.9
20260508083039 12 339 0.0 0.0 0.00 0.00 0.00 48 1014.9
20260508081532 12 339 0.0 1.6 0.00 0.00 0.00 46 1014.9
20260508080032 12 272 0.0 1.6 0.00 0.00 0.00 47 1014.7
20260508074531 11 207 0.0 1.6 0.00 0.00 0.00 50 1014.8
20260508073033 11 169 0.0 1.6 0.00 0.00 0.00 50 1014.8
20260508071532 11 53 0.0 0.0 0.00 0.00 0.00 49 1014.7
20260508070024 12 53 0.0 0.0 0.00 0.00 0.00 48 1014.5
20260508064530 12 53 0.0 0.0 0.00 0.00 0.00 47 1014.7
20260508063020 12 53 0.0 0.0 0.00 0.00 0.00 47 1014.6
20260508061518 13 53 0.0 0.0 0.00 0.00 0.00 46 1014.6
20260508060017 13 53 0.0 0.0 0.00 0.00 0.00 45 1014.5
20260508054515 13 53 0.0 0.0 0.00 0.00 0.00 44 1014.4
20260508053013 14 53 0.0 0.0 0.00 0.00 0.00 43 1014.2
20260508051513 14 53 0.0 0.0 0.00 0.00 0.00 43 1014.1
20260508050014 15 53 0.0 0.0 0.00 0.00 0.00 42 1014.2
20260508044512 15 240 0.0 1.6 0.00 0.00 0.00 39 1014.2
20260508043012 15 242 0.0 1.6 0.00 0.00 0.00 40 1014.1
20260508041518 15 225 0.0 1.6 0.00 0.00 0.00 40 1014.1
20260508040010 16 223 0.0 0.0 0.00 0.00 0.00 39 1014.0
20260508034516 16 224 0.0 1.6 0.00 0.00 0.00 39 1013.9
20260508033021 16 356 0.0 0.0 0.00 0.00 0.00 36 1013.8
20260508031508 17 356 0.0 0.0 0.00 0.00 0.00 35 1013.6
20260508030014 17 21 0.0 0.0 0.00 0.00 0.00 36 1013.6
20260508024510 18 22 0.0 0.0 0.00 0.00 0.00 31 1013.6
20260508023008 20 22 0.0 1.6 0.00 0.00 0.00 28 1013.4
20260508021507 21 6 0.0 3.2 0.00 0.00 0.00 26 1013.4
20260508020007 23 346 0.0 4.8 0.00 0.00 0.00 24 1013.3
20260508014509 23 358 0.0 4.8 0.00 0.00 0.00 24 1013.2
20260508013014 25 323 0.0 3.2 0.00 0.00 0.00 23 1013.2
20260508011501 24 105 0.0 1.6 0.00 0.00 0.00 23 1013.3
20260508010125 23 110 0.0 1.6 0.00 0.00 0.00 23 1013.3
20260508004559 23 231 0.0 1.6 0.00 0.00 0.00 25 1013.3
20260508003104 22 269 0.0 1.6 0.00 0.00 0.00 25 1013.6
20260508001559 22 38 0.0 4.8 0.00 0.00 0.00 24 1013.6
20260508000054 23 46 3.2 8.0 0.00 0.00 0.00 24 1013.8
20260507234553 23 350 3.2 9.7 0.00 0.00 0.00 24 1013.8
20260507233051 24 277 3.2 9.7 0.00 0.00 0.00 22 1013.9
20260507231549 24 292 1.6 9.7 0.00 0.00 0.00 24 1014.1
20260507230101 23 30 3.2 14.5 0.00 0.00 0.00 24 1014.4
20260507224544 23 360 3.2 11.3 0.00 0.00 0.00 23 1014.6
20260507223124 23 38 4.8 11.3 0.00 0.00 0.00 24 1014.9
20260507221539 23 304 3.2 12.9 0.00 0.00 0.00 23 1015.1
20260507220036 23 49 3.2 11.3 0.00 0.00 0.00 23 1015.2
20260507214539 23 300 4.8 11.3 0.00 0.00 0.00 24 1015.3